[[{"header":{"parameterUnit":"m.s-1","parameterCategory":1,"la1":30.2991,"la2":30.254,"lo1":-89.0895,"lo2":-89.0444,"dy":0.0017,"dx":0.0017,"nx":28,"ny":28,"refTime":"2025-07-17T03:00:00:Z","depth":0,"parameterNumber":2,"parameterNumberName":"U-component_of_WINDS"},"data":[0,0,0,0,0,0,0,0,0,0,0,0,0,0,0,0,0,0,0,0,0,0,0,0,0,0,0,0,0,0,0,0,0,0,0,0,0,0,0,0,0,0,0,0,0,0,0,0,0,0,0,0,0,0,0,0,0,0,1.7143,1.7143,0,1.7128,1.7128,1.7128,1.7001,1.6998,1.6995,1.6992,1.6995,1.6998,1.7001,0,0,0,0,0,0,0,0,0,0,0,0,0,1.7069,1.7071,1.7143,1.7143,1.7143,1.7128,1.7128,1.7128,1.7002,1.6998,1.6994,1.699,1.6994,1.6997,1.7001,0,0,0,0,0,0,0,0,0,0,0,0,0,1.7083,1.7072,1.7143,1.7077,1.7071,1.7128,1.7128,1.7128,1.7003,1.6998,1.6993,1.6988,1.6992,1.6997,1.7001,1.7126,0,0,1.7015,1.7017,0,0,0,0,0,0,0,0,1.7082,1.7086,1.7087,1.7082,1.7075,1.7061,1.7103,1.7128,1.7004,1.7029,1.6992,1.6986,1.7022,1.7024,1.7032,1.7126,1.7126,1.7016,1.7019,1.7021,1.7022,0,0,0,0,0,0,0,1.7081,1.7086,1.7138,1.7087,1.708,1.7051,1.7048,1.7107,1.7053,1.7027,1.7017,1.7016,1.7018,1.7028,1.7031,1.7126,1.7016,1.702,1.7023,1.7024,1.731,1.7315,0,0,0,0,0,0,1.7088,1.7086,1.7138,1.7137,1.7066,1.7056,1.7052,1.7071,1.7052,1.7044,1.702,1.701,1.7022,1.7026,1.7031,1.7169,1.702,1.7025,1.7027,1.7305,1.7311,1.7316,0,0,0,0,0,0,1.7087,1.7094,1.7139,1.7109,1.7112,1.7062,1.7084,1.7073,1.7083,1.7047,1.7038,1.704,1.7019,1.7024,1.7099,1.7167,1.7027,1.7031,1.73,1.7307,1.7314,1.745,0,0,0,0,0,0,1.7085,1.7094,1.714,1.711,1.7114,1.7206,1.7089,1.7076,1.7089,1.7076,1.7063,1.7057,1.7015,1.7093,1.7104,1.7171,1.7035,1.7293,1.7303,1.7311,1.744,1.7461,1.748,0,0,0,0,0,1.7083,1.7186,1.7143,1.7151,1.717,1.721,1.7213,1.7158,1.7095,1.7141,1.7116,1.7057,1.7157,1.7102,1.7113,1.7183,1.7289,1.73,1.7311,1.7431,1.7457,1.7479,0,0,0,0,0,0,1.7234,1.7181,1.7134,1.7229,1.7223,1.7189,1.7246,1.7189,1.7207,1.7195,1.7131,1.7129,1.7213,1.7205,1.7144,1.7296,1.7212,1.7226,1.7299,1.7324,1.7344,1.7346,1.7038,0,0,0,0,0,1.7276,1.731,1.7263,1.7352,1.735,1.7298,1.7314,1.727,1.7265,1.7265,1.7246,1.7247,1.7277,1.73,1.7327,1.7435,1.7429,1.7488,1.7508,1.7525,1.7539,1.7588,1.7613,1.7352,1.7352,1.7352,0,0,1.737,1.7344,1.7371,1.7381,1.7372,1.7409,1.7298,1.7346,1.7372,1.7274,1.7341,1.7325,1.7322,1.7412,1.7451,1.7408,1.7607,1.7539,1.7552,1.7557,1.7602,1.7627,1.7649,1.7359,1.7358,1.7357,0,0,1.7555,1.754,1.7608,1.7598,1.7581,1.7543,1.7559,1.7529,1.7513,1.7577,1.75,1.7533,1.7589,1.7586,1.7593,1.7763,1.7708,1.7773,1.7881,1.793,1.795,1.7968,1.8026,1.8048,1.7787,1.7787,1.7787,0,1.7674,1.7724,1.7652,1.7699,1.7704,1.7606,1.7673,1.7669,1.7666,1.7672,1.7621,1.768,1.7672,1.7756,1.7796,1.7805,1.7821,1.7778,1.7952,1.7969,1.7985,1.8039,1.8062,1.7795,1.7794,1.7793,1.7792,0,1.7867,1.7902,1.7959,1.7947,1.7958,1.8017,1.7954,1.7974,1.7926,1.7893,1.7955,1.7939,1.7956,1.7972,1.7932,1.8048,1.8021,1.7963,1.7877,1.8019,1.8069,1.8089,1.7806,1.7803,1.7801,1.7799,0,0,1.816,1.8095,1.8118,1.8107,1.8076,1.8103,1.8153,1.8162,1.8178,1.8176,1.8217,1.8258,1.8199,1.8206,1.8162,1.8205,1.8334,1.814,1.8138,1.8175,1.8457,1.8502,1.8527,1.8294,1.8298,1.8301,1.8456,0,1.8336,1.8414,1.8346,1.8439,1.8467,1.8367,1.841,1.8396,1.8364,1.8385,1.8351,1.838,1.8302,1.8304,1.8341,1.8311,1.839,1.8298,1.8333,1.8336,1.8339,1.8554,1.8604,1.8752,1.8476,1.8479,1.8481,0,1.8555,1.8551,1.8645,1.8596,1.8605,1.8646,1.8642,1.8663,1.8643,1.8616,1.8616,1.8556,1.8602,1.8513,1.8574,1.8513,1.8522,1.8508,1.8512,1.8516,1.8419,1.8563,1.8798,1.8821,1.8512,1.8509,1.8507,0,1.8754,1.8773,1.8829,1.8823,1.877,1.8799,1.8779,1.8752,1.8758,1.8756,1.8759,1.8765,1.877,1.8776,1.8718,1.866,1.8786,1.8694,1.8766,1.8767,1.8801,1.88,1.9041,1.8805,1.8805,1.8804,1.8804,0,1.896,1.9021,1.8916,1.8951,1.9014,1.8932,1.8998,1.8968,1.8942,1.897,1.8885,1.8914,1.8835,1.8855,1.881,1.8865,1.8869,1.8848,1.8837,1.8857,1.8859,1.8865,1.8853,1.881,1.8809,1.8808,1.8807,0,1.9197,1.9129,1.9182,1.9122,1.9107,1.9156,1.9105,1.9135,1.9091,1.9126,1.913,1.9065,1.9082,1.9022,1.9034,1.9003,1.9082,1.9054,1.9088,1.9079,1.9153,1.9147,1.9408,1.9436,1.9182,1.9184,1.9186,0,1.9333,1.9375,1.9315,1.9323,1.9304,1.9321,1.9322,1.9241,1.9247,1.9219,1.9252,1.9259,1.9262,1.9294,1.925,1.9255,1.9226,1.9316,1.9228,1.9243,1.9226,1.9224,1.9226,1.9337,1.934,1.9343,1.9345,0,1.9581,1.9542,1.9546,1.9534,1.9536,1.9526,1.951,1.9523,1.9434,1.9445,1.9456,1.9457,1.946,1.9469,1.9462,1.9443,1.938,1.9371,1.9387,1.9411,1.9428,1.9417,1.9138,1.9367,1.9365,1.9364,1.9362,1.9361,1.9771,1.98,1.9759,1.9764,1.974,1.9724,1.9745,1.9699,1.9705,1.9697,1.9648,1.9668,1.9637,1.962,1.9606,1.9621,1.9579,1.9605,1.9611,1.9618,1.963,1.9421,1.962,1.9619,1.9618,1.9618,1.9617,0,2.0013,1.9978,1.9982,1.9956,1.9958,1.9886,1.9862,1.987,1.9886,1.9859,1.9859,1.9869,1.9873,1.9823,1.9821,1.9842,1.9812,1.9845,1.9844,1.9839,1.9669,1.9653,1.9868,1.9868,1.9868,1.9868,1.9868,1.9868,2.014,2.0183,2.0137,2.0167,2.0132,2.0144,2.0136,2.0119,2.0096,2.0108,2.0108,2.0072,2.0035,2.0028,2.0028,2.0013,2.0016,2.0059,2.0034,1.9877,1.9853,1.983,1.9815,2.006,2.006,2.0203,2.0205,2.0206]},{"header":{"parameterUnit":"m.s-1","parameterCategory":1,"la1":30.2991,"la2":30.254,"lo1":-89.0895,"lo2":-89.0444,"dy":0.0017,"dx":0.0017,"nx":28,"ny":28,"refTime":"2025-07-17T03:00:00:Z","depth":0,"parameterNumber":3,"parameterNumberName":"V-component_of_WINDS"},"data":[0,0,0,0,0,0,0,0,0,0,0,0,0,0,0,0,0,0,0,0,0,0,0,0,0,0,0,0,0,0,0,0,0,0,0,0,0,0,0,0,0,0,0,0,0,0,0,0,0,0,0,0,0,0,0,0,0,0,2.1296,2.1294,0,2.1149,2.1147,2.1146,2.1016,2.1014,2.1013,2.1011,2.087,2.0867,2.0865,0,0,0,0,0,0,0,0,0,0,0,0,0,2.1474,2.1471,2.1296,2.1294,2.1292,2.1149,2.1147,2.1145,2.1016,2.1014,2.1012,2.1011,2.087,2.0868,2.0865,0,0,0,0,0,0,0,0,0,0,0,0,0,2.1369,2.147,2.1296,2.121,2.1201,2.1149,2.1147,2.1145,2.1017,2.1014,2.1012,2.101,2.0871,2.0868,2.0865,2.0889,0,0,2.0854,2.0852,0,0,0,0,0,0,0,0,2.1375,2.1363,2.1225,2.1216,2.1206,2.1098,2.1158,2.1059,2.1017,2.1087,2.1011,2.1009,2.0948,2.0938,2.0916,2.0882,2.0876,2.0853,2.0851,2.085,2.0849,0,0,0,0,0,0,0,2.1382,2.1368,2.1238,2.1223,2.1211,2.1182,2.1165,2.1138,2.1033,2.1081,2.1071,2.1055,2.0943,2.092,2.0912,2.0874,2.0854,2.085,2.0848,2.0847,2.0856,2.0858,0,0,0,0,0,0,2.1402,2.1375,2.1243,2.1233,2.1286,2.1181,2.1161,2.1135,2.1032,2.1014,2.1057,2.1049,2.0927,2.0916,2.0906,2.0931,2.085,2.0847,2.0844,2.0854,2.0857,2.0859,0,0,0,0,0,0,2.1406,2.1391,2.1248,2.1301,2.1281,2.118,2.1152,2.1134,2.111,2.1014,2.0996,2.1052,2.0925,2.0911,2.0894,2.0924,2.0845,2.0842,2.0851,2.0855,2.0858,2.0978,0,0,0,0,0,0,2.1412,2.1393,2.1399,2.1302,2.1279,2.1237,2.1153,2.1132,2.1104,2.1092,2.1005,2.0989,2.0922,2.09,2.0891,2.0918,2.0839,2.0848,2.0853,2.0857,2.0971,2.0986,2.0998,0,0,0,0,0,2.1418,2.144,2.14,2.1385,2.1284,2.1238,2.1225,2.1145,2.1106,2.1113,2.1052,2.0991,2.0921,2.0899,2.0888,2.0914,2.0846,2.0851,2.0856,2.0965,2.0983,2.0997,0,0,0,0,0,0,2.1546,2.1426,2.138,2.1371,2.1316,2.1217,2.1223,2.1166,2.1123,2.1114,2.1019,2.1001,2.0996,2.0952,2.093,2.0934,2.0876,2.0879,2.0963,2.0978,2.0991,2.1004,2.0836,0,0,0,0,0,2.1572,2.1543,2.144,2.1442,2.1417,2.1325,2.1302,2.1245,2.1185,2.1162,2.1099,2.1046,2.1012,2.0992,2.0955,2.0963,2.0945,2.0976,2.0989,2.1,2.1006,2.1011,2.1024,2.0877,2.0877,2.0876,0,0,2.1628,2.1559,2.1547,2.1466,2.1417,2.1392,2.1306,2.1283,2.1264,2.1159,2.114,2.1092,2.1026,2.1023,2.1018,2.0987,2.1042,2.1007,2.1017,2.1016,2.1018,2.1032,2.1044,2.088,2.088,2.0879,0,0,2.1718,2.166,2.1657,2.1608,2.1534,2.1472,2.1472,2.1381,2.1345,2.1323,2.1244,2.1223,2.1165,2.1123,2.1094,2.1168,2.1112,2.1158,2.1229,2.1235,2.1247,2.1257,2.1287,2.1299,2.1163,2.1163,2.1164,0,2.1797,2.1753,2.1663,2.1644,2.1613,2.1514,2.1512,2.1471,2.1389,2.1372,2.1336,2.1264,2.1212,2.12,2.1218,2.1196,2.1196,2.117,2.1252,2.1261,2.1269,2.1297,2.1308,2.117,2.1169,2.1168,2.1168,0,2.1857,2.1828,2.1835,2.1756,2.1725,2.1716,2.1627,2.1607,2.1553,2.1497,2.1478,2.1412,2.1362,2.1354,2.1302,2.1335,2.1318,2.1269,2.1209,2.1291,2.1316,2.1326,2.1179,2.1177,2.1175,2.1173,0,0,2.2025,2.1896,2.19,2.1865,2.1775,2.1753,2.174,2.1688,2.1675,2.1622,2.1612,2.1565,2.1519,2.1486,2.1428,2.1433,2.1501,2.1383,2.138,2.1411,2.1539,2.158,2.1594,2.1462,2.1463,2.1465,2.1546,0,2.2103,2.207,2.1989,2.1984,2.1959,2.1864,2.1853,2.18,2.1747,2.172,2.1662,2.1633,2.1571,2.1552,2.1552,2.1493,2.1526,2.1485,2.1456,2.1456,2.148,2.1606,2.1649,2.1728,2.1555,2.1556,2.1557,0,2.2189,2.2141,2.2133,2.2046,2.2032,2.2024,2.1971,2.1945,2.1883,2.1845,2.1809,2.1743,2.1728,2.1671,2.1651,2.1625,2.1608,2.1578,2.1579,2.1577,2.1515,2.1612,2.1751,2.1765,2.1571,2.157,2.1569,0,2.2318,2.225,2.2237,2.2209,2.2107,2.2104,2.2062,2.1996,2.1972,2.1926,2.191,2.1864,2.1841,2.1809,2.1735,2.1699,2.1726,2.1661,2.1698,2.17,2.1711,2.1712,2.1855,2.1693,2.1693,2.1693,2.1692,0,2.2416,2.2416,2.2294,2.2287,2.2285,2.2193,2.2195,2.2144,2.2087,2.2071,2.1986,2.1974,2.1874,2.1851,2.1793,2.1789,2.1778,2.1749,2.1735,2.176,2.1764,2.175,2.1745,2.1696,2.1695,2.1694,2.1694,0,2.2561,2.2479,2.2459,2.2363,2.2339,2.2343,2.2262,2.2254,2.2195,2.2176,2.2166,2.2076,2.2044,2.1966,2.1915,2.1876,2.1889,2.1859,2.191,2.1901,2.1944,2.1943,2.2087,2.2103,2.1928,2.1929,2.1931,0,2.2631,2.2629,2.2532,2.2514,2.2475,2.2446,2.242,2.2329,2.2306,2.2235,2.2237,2.2198,2.2162,2.2118,2.205,2.2011,2.1983,2.2035,2.1977,2.2002,2.1989,2.1992,2.1993,2.205,2.2053,2.2054,2.2056,0,2.2766,2.2726,2.2689,2.2639,2.2609,2.2566,2.2519,2.251,2.2408,2.2387,2.2352,2.2325,2.2272,2.2237,2.2187,2.2147,2.2088,2.2074,2.2082,2.2109,2.2141,2.2129,2.195,2.2073,2.2071,2.207,2.2069,2.2068,2.2879,2.2873,2.2805,2.2768,2.2722,2.268,2.2668,2.2607,2.2576,2.2524,2.2473,2.2445,2.2386,2.2313,2.2277,2.2256,2.2225,2.2234,2.2238,2.2243,2.2256,2.214,2.2247,2.2246,2.2245,2.2245,2.2245,0,2.3013,2.2964,2.293,2.2866,2.2838,2.2778,2.2723,2.2706,2.2681,2.2629,2.2595,2.2558,2.2524,2.2452,2.2412,2.241,2.2382,2.2403,2.2405,2.2398,2.2284,2.2284,2.2427,2.2427,2.2427,2.2427,2.2427,2.2427,2.308,2.3069,2.3021,2.2987,2.2938,2.2908,2.2883,2.2845,2.2803,2.2764,2.2734,2.2687,2.2628,2.2583,2.2551,2.2531,2.2522,2.2554,2.2526,2.2422,2.2405,2.2389,2.2388,2.2552,2.2552,2.2642,2.2643,2.2644]}]]